241  
SXUS52 KTAE 191016  
OSOTAE  
OSOTAE  
NORTH FLORIDA/SOUTH ALABAMA/SOUTHWEST GEORGIA WEATHER ROUNDUP  
NATIONAL WEATHER SERVICE TALLAHASSEE FLORIDA  
600 AM EDT FRI JUL 19 2019  
 
NOTE: "FAIR" INDICATES FEW OR NO CLOUDS BELOW 12,000 FEET WITH NO  
SIGNIFICANT WEATHER AND/OR OBSTRUCTIONS TO VISIBILITY.  
 
!FLZ017-115-028-034-025-191100   
..NORTH FLORIDA
 
 
 
CITY SKY/WX TMP DP RH WIND PRES REMARKS  
TALL INTL ARPT MOCLDY 77 76 96 CALM 30.04S  
FSU LOVE BLDG N/A 77 75 94 CALM N/A  
APALACHICOLA FAIR 78 75 90 E3 30.03S  
PERRY FAIR 77 76 97 CALM 30.06R FOG  
CROSS CITY FAIR 75 74 98 CALM 30.05S  
JACKSONVILLE FAIR 76 74 93 CALM 30.05R  

 
 
!FLZ112-006-005-002-011-191100   
..FLORIDA PANHANDLE
 
 
 
CITY SKY/WX TMP DP RH WIND PRES REMARKS  
MARIANNA FAIR 76 74 93 S3 30.03S  
BONIFAY FAIR 75 74 96 CALM 30.05R  
PANAMA CITY NW FAIR 76 73 91 CALM 30.03R  
TYNDALL AFB FAIR 78 75 91 CALM 30.03R  
TYND DRONE APT FAIR N/A N/A N/A CALM N/A  
DE FUNIAK SPR FAIR 75 74 96 CALM 30.05S  
EGLIN AFB FAIR 77 74 90 CALM 30.03R  
DESTIN MOCLDY 80 77 90 CALM 30.03R  
HURLBURT PTCLDY 76 74 93 CALM 30.02R  
CRESTVIEW FAIR 74 72 93 CALM 30.05R  
PENSACOLA FAIR 79 79 100 CALM 30.03R  

 
 
!ALZ063-066-191100   
..SOUTH ALABAMA
 
 
 
CITY SKY/WX TMP DP RH WIND PRES REMARKS  
DOTHAN FAIR 76 72 87 S5 30.08R  
OZARK CAIRNS FAIR 75 74 96 CALM 30.04R  
FT RUCKER HELI MOCLDY 73 73 100 S3 30.04R  
RUCKER HELI 3 FAIR 75 74 97 MISG 30.04R  
RUCKER HELI 2 FAIR 73 73 100 CALM 30.03R  
FLORALA APT FAIR 76 72 87 CALM 30.07R  
ANDALUSIA FAIR 77 73 87 CALM 30.04R  
TROY FAIR 73 72 96 CALM 30.05R  
EUFALA NOT AVBL  
MOBILE FAIR 77 76 96 CALM 30.04R  

 
 
!GAZ120>161-191100   
..SOUTHWEST AND SOUTH CENTRAL GEORGIA
 
 
 
CITY SKY/WX TMP DP RH WIND PRES REMARKS  
THOMASVILLE FAIR 72 70 94 CALM 30.07R  
BAINBRIDGE NOT AVBL  
MOODY AFB FAIR 76 76 100 CALM 30.04R  
VALDOSTA FAIR 75 74 96 CALM 30.05R  
MOULTRIE FAIR 72 70 94 CALM 30.07R  
BLAKELY FAIR 70 68 94 CALM 30.05R  
ALBANY FAIR 74 72 93 CALM 30.06S  
TIFTON FAIR N/A N/A N/A CALM 30.05  
FITZGERALD FAIR 75 72 90 CALM 30.08R  
CORDELE FAIR 73 71 92 CALM 30.06R  
AMERICUS FAIR 75 72 88 SW3 30.06S  
HOMERVILLE FAIR 73 72 94 CALM 30.05S  

 
 
!GMZ750-755-770-775-191100   
..COASTAL AND BUOY OBS
 
 
 
STATION/POSITION TIME TEMP WIND PRES VSBY WAVE  
AIR SEA DIR/SP/G HT/PER  
(UTC) (F) (DEG/KT/KT) (MB) (MI) (FT/S)  
KEATON BEACH 1000 80 50/ 2/ 2 1017.6S  
CEDAR KEY 1000 84 160/ 4/ 5 1017.6R  
C TOWER 1000 83 180/ 1/ 2 1017.4S  
APALACHICOLA BUO 1000 84 180/ 4/ 4 1017.8  
PANAMA CITY BUOY 0950 84 86 170/ 4/ 6 1017.1R 1/ 5  
MOBILE BUOY 1000 84 87 180/ 4/ 8 1017.0  
ORANGE BCH AL BU 1000 85 86 220/ 6/ 8 1016.9  

 
 
 
CLICK HERE TO GO TO PREVIOUS BULLETINS.

The Nexlab FL Page
The Nexlab GA Page
The Nexlab AL Page Main Text Page